Date,TemperatureHighF,TemperatureAvgF,TemperatureLowF,DewpointHighF,DewpointAvgF,DewpointLowF,HumidityHigh,HumidityAvg,HumidityLow,PressureMaxIn,PressureMinIn,WindSpeedMaxMPH,WindSpeedAvgMPH,GustSpeedMaxMPH,PrecipitationSumIn
2013-1-1,28.2,19.4,10.2,21.7,12.2,4.0,79,73,61,29.30,29.18,22,7,22,0.00
2013-1-2,20.8,16.4,11.1,13.1,9.3,3.7,75,73,71,29.48,29.25,20,8,21,0.00
2013-1-3,29.1,24.0,14.1,24.2,18.0,9.3,83,78,72,29.42,29.25,18,10,19,0.00
2013-1-4,32.1,30.4,28.5,22.8,20.2,17.9,79,66,59,29.26,29.19,20,12,20,0.04
2013-1-5,36.1,30.2,26.2,26.0,21.4,17.7,73,70,64,29.49,29.24,14,5,21,0.21
2013-1-6,38.8,34.0,29.8,30.2,25.9,22.0,83,72,67,29.37,29.16,21,10,22,0.00
2013-1-7,34.3,26.5,25.5,22.0,20.7,19.1,84,79,73,29.62,29.23,15,7,15,0.65
2013-1-8,36.5,28.8,25.3,22.3,19.7,18.1,74,69,57,29.59,29.48,15,5,15,0.00
2013-1-9,43.7,37.8,30.7,30.3,26.3,19.4,72,63,56,29.58,29.31,36,15,36,0.65
2013-1-10,37.5,37.2,37.0,26.5,26.3,26.1,65,64,64,29.67,29.53,17,12,17,0.00
2013-1-13,59.5,56.4,52.8,52.3,49.8,47.5,82,79,75,29.19,29.08,22,11,57,0.00
2013-1-14,43.8,34.8,30.0,40.3,26.7,21.3,88,72,63,29.62,29.16,21,9,27,0.04
2013-1-15,37.2,29.0,26.9,22.4,20.9,18.7,76,72,56,29.64,29.47,12,2,12,0.00
2013-1-16,39.9,31.9,29.1,30.9,26.3,21.7,84,80,69,29.39,29.06,16,7,16,0.00
2013-1-17,34.3,24.9,19.0,27.7,17.4,12.3,78,73,69,29.44,29.21,20,8,20,0.00
2013-1-18,26.4,17.9,9.1,13.8,9.6,4.4,84,71,56,29.62,29.39,25,7,25,0.03
2013-1-19,48.2,43.8,28.5,29.7,25.4,15.6,58,48,42,29.36,29.05,67,12,67,0.00
2013-1-20,47.4,32.3,24.6,26.2,17.7,10.4,69,55,43,29.25,28.84,54,18,54,0.75
2013-1-21,24.4,22.3,19.5,15.8,12.2,7.1,77,65,55,29.27,29.11,11,5,18,0.00
2013-1-22,16.3,10.0,8.4,8.9,-1.3,-2.9,72,60,45,29.39,29.13,26,16,26,0.00
2013-1-23,8.2,5.4,2.8,-0.7,-3.5,-5.5,73,66,59,29.42,29.37,16,6,16,0.00
2013-1-24,10.7,6.7,-0.5,3.2,-0.5,-6.1,80,72,66,29.72,29.43,19,9,20,0.00
2013-1-25,18.1,14.2,10.7,7.2,5.9,4.5,76,70,61,29.70,29.37,11,5,11,0.00
2013-1-29,49.6,48.7,46.5,46.1,45.3,43.2,89,88,87,29.17,29.11,16,9,16,0.06
2013-1-30,59.1,54.8,49.6,52.0,48.9,45.9,88,81,76,29.10,28.49,29,16,32,0.02
2013-1-31,54.5,27.9,22.1,46.1,21.1,15.6,86,76,64,28.95,28.44,46,19,61,0.14
2013-2-1,21.5,18.8,17.4,13.2,11.3,10.1,75,73,70,29.44,28.97,24,14,24,0.00
2013-2-2,21.3,16.8,14.7,10.2,7.9,6.0,72,68,59,29.44,29.35,24,12,24,0.00
2013-2-3,32.3,27.8,23.0,20.1,17.9,15.6,74,66,58,29.14,29.03,9,5,9,0.00
2013-2-4,20.3,19.8,19.5,11.8,10.1,9.2,70,66,62,29.18,29.03,17,8,17,0.16
2013-2-5,24.0,17.3,13.2,18.0,11.7,8.2,81,78,75,29.23,29.13,9,4,9,0.00
2013-2-6,27.5,18.7,10.2,22.7,11.3,2.3,86,73,57,29.63,29.14,20,5,20,0.30
2013-2-7,31.2,20.3,8.9,18.4,10.9,2.9,77,68,54,29.70,29.39,16,6,18,0.00
2013-2-8,32.0,30.8,29.6,26.2,22.5,16.8,79,71,58,29.39,29.24,20,10,23,0.00
2013-2-9,32.1,18.0,16.1,27.8,13.9,12.0,84,84,79,29.43,29.24,7,0,7,0.00
2013-2-10,48.7,29.7,8.9,21.9,15.2,3.4,86,58,34,29.67,29.35,19,9,19,0.12
2013-2-11,37.9,35.4,34.3,33.5,28.0,17.0,84,75,49,29.35,28.94,30,11,30,0.08
2013-2-12,35.7,31.5,30.9,23.9,23.3,22.6,75,71,68,29.24,28.98,18,10,18,0.29
2013-2-13,30.3,30.0,30.0,22.7,22.4,22.3,73,73,73,29.17,29.16,6,3,7,0.00
2013-2-18,30.0,29.6,29.3,14.1,13.7,13.1,52,51,50,29.27,29.25,17,10,17,0.00
2013-2-21,20.8,20.4,19.9,15.3,13.7,4.6,79,76,51,29.64,29.26,5,1,12,0.18
2013-2-22,20.8,19.2,15.6,15.3,14.1,11.3,84,80,79,29.63,29.62,2,0,2,0.00
2013-2-23,37.5,32.2,20.4,32.9,27.7,16.0,84,84,83,29.61,29.14,7,5,7,0.02
2013-2-24,34.5,30.9,29.8,26.1,24.3,23.3,80,77,71,29.27,29.13,17,8,17,0.00
2013-2-26,45.5,35.5,24.9,30.2,25.9,20.5,84,69,55,29.48,29.26,24,9,24,0.00
2013-3-2,36.5,25.6,23.9,20.5,19.5,18.8,82,78,74,29.20,29.11,14,9,14,1.10
2013-3-3,32.3,26.1,21.3,20.8,18.9,17.2,86,75,59,29.11,29.08,17,7,17,0.02
2013-3-6,40.8,37.5,35.4,29.7,26.7,24.7,66,65,63,29.38,29.33,11,3,11,0.00
2013-3-7,36.1,31.4,29.1,27.3,24.1,22.1,77,74,64,29.49,29.38,13,6,13,0.00
2013-3-8,54.1,38.3,27.1,30.9,26.0,19.7,85,64,39,29.63,29.48,21,10,23,0.11
2013-3-9,66.5,46.9,27.5,37.8,31.1,20.5,86,58,35,29.66,29.55,6,1,7,0.00
2013-3-10,64.9,50.8,35.7,34.3,29.1,23.8,63,44,32,29.51,29.29,19,11,20,0.00
2013-3-11,53.7,50.5,46.0,42.2,34.0,28.4,70,54,48,29.27,29.01,34,14,34,0.00
2013-3-12,53.4,46.5,37.7,46.3,40.5,31.0,88,80,70,29.14,29.00,18,10,23,0.35
2013-3-13,34.7,31.1,28.5,26.1,23.1,16.6,77,72,60,29.18,29.13,28,7,28,0.14
2013-3-14,38.8,33.4,25.8,16.8,11.9,9.4,68,42,34,29.24,29.19,34,20,34,0.20
2013-3-15,34.3,24.9,23.7,27.7,16.2,4.3,77,70,40,29.26,28.99,22,7,22,0.00
2013-3-16,36.8,31.8,24.6,28.3,18.1,14.1,71,57,50,29.14,28.99,20,5,20,0.00
2013-3-17,43.1,30.5,21.0,22.1,15.5,9.5,68,54,42,29.57,29.14,18,7,18,0.00
2013-3-18,30.9,24.8,18.3,23.4,17.1,8.0,81,72,61,29.60,29.20,21,9,21,0.00
2013-3-19,34.7,31.9,28.9,26.9,21.9,19.0,81,67,59,29.09,29.01,23,15,23,0.09
2013-3-20,39.5,31.4,26.9,24.5,17.6,14.6,70,57,46,29.10,29.05,26,14,26,0.06
2013-3-21,21.0,21.0,21.0,14.5,14.5,14.5,76,76,76,29.05,29.04,10,8,19,0.00
2013-3-24,51.6,37.2,28.2,29.6,23.6,19.5,76,59,38,29.22,29.03,17,5,17,0.00
2013-3-25,43.3,34.7,29.8,27.8,25.2,16.6,76,69,53,29.03,28.85,19,5,19,0.00
2013-3-26,37.9,31.7,30.0,32.6,24.4,21.2,85,75,55,29.18,29.01,8,2,8,0.00
2013-3-27,42.0,35.4,30.5,33.7,29.1,23.5,84,78,70,29.29,29.18,20,8,20,0.00
2013-3-28,47.1,43.6,34.3,39.8,32.1,30.3,86,64,55,29.45,29.36,16,10,18,0.02
2013-3-29,41.3,38.6,37.2,33.4,31.8,30.3,79,76,72,29.45,29.44,14,8,14,0.00
2013-3-30,66.5,47.2,32.9,36.6,27.4,21.0,73,49,28,29.46,29.34,16,6,16,0.00
2013-3-31,54.3,45.1,34.3,39.5,32.7,23.9,86,63,46,29.35,28.98,22,10,22,0.22
2013-4-1,42.9,33.3,26.7,38.7,25.8,18.1,86,75,53,29.21,28.87,26,11,26,0.13
2013-4-2,34.3,28.4,22.8,23.3,19.1,15.4,80,68,55,29.35,29.19,34,15,34,0.07
2013-4-3,40.1,31.4,26.2,18.7,16.4,14.5,68,55,39,29.59,29.38,21,11,23,0.00
2013-4-11,38.3,38.1,37.9,34.1,33.6,33.2,85,84,83,29.29,29.27,12,6,12,0.00
2013-4-25,54.1,53.7,53.4,30.3,29.8,29.4,41,40,39,29.44,29.42,9,4,9,0.00
2013-4-26,55.2,51.7,49.6,39.8,38.2,36.6,65,60,57,29.71,29.70,11,4,11,0.08
2013-5-1,83.4,68.5,60.4,43.5,37.4,33.8,38,33,23,29.63,29.60,7,4,10,0.00
2013-5-2,60.4,52.5,51.4,35.2,34.7,33.8,54,51,37,29.67,29.63,7,6,7,0.00
2013-5-7,67.2,66.3,65.6,51.4,50.6,49.8,60,57,54,29.33,29.31,59,8,59,0.00
2013-5-11,60.6,59.9,59.5,51.4,51.2,50.9,74,73,71,29.02,29.01,16,13,17,0.00
2013-5-15,48.0,48.0,48.0,34.0,34.0,33.9,58,58,58,29.17,29.16,12,9,12,0.00
2013-5-20,77.1,76.0,74.8,60.7,60.5,60.3,61,59,57,29.19,29.18,6,4,8,0.00
2013-5-22,66.0,65.4,64.7,62.4,61.7,60.9,89,88,88,29.10,29.07,9,4,9,0.02
2013-5-28,62.4,61.4,60.6,54.9,54.5,54.1,80,78,76,29.34,29.32,8,5,8,0.12
2013-6-6,54.5,54.3,54.1,51.2,50.7,50.3,89,88,87,29.23,29.21,5,0,5,0.06
2013-6-9,90.6,79.1,64.5,62.2,57.5,54.0,70,49,36,29.45,29.41,4,0,4,0.00
2013-6-11,62.7,62.7,62.7,56.4,56.4,56.3,80,80,80,29.05,29.05,4,1,4,0.35
2013-6-13,63.3,60.2,55.7,55.8,54.6,52.7,90,82,73,29.04,28.90,14,4,15,0.83
2013-6-14,55.4,55.0,54.5,52.6,52.2,51.6,91,91,90,29.05,29.04,0,0,0,0.00
2013-6-16,80.9,70.7,66.0,67.3,62.9,59.7,83,77,63,29.13,29.02,16,4,16,0.09
2013-6-17,66.0,62.9,61.5,59.7,58.1,57.3,86,84,80,29.14,29.13,5,2,6,0.00
2013-6-28,77.3,68.9,62.2,69.5,64.1,58.8,93,85,73,28.84,28.77,22,0,22,0.47
2013-6-29,72.8,68.3,63.3,65.1,63.3,61.0,92,84,76,28.98,28.83,1,0,3,0.16
2013-6-30,89.7,71.8,65.1,70.5,63.8,61.5,91,77,52,29.20,28.99,0,0,0,0.14
2013-7-1,75.0,69.4,64.5,67.6,65.2,60.9,92,87,76,29.30,29.19,0,0,0,0.64
2013-7-2,69.6,66.5,64.0,66.3,64.2,61.7,94,92,90,29.35,29.29,0,0,0,0.00
2013-7-9,70.3,69.3,68.5,67.5,66.6,65.9,92,91,90,29.34,29.33,1,0,1,0.00
2013-7-10,90.8,78.3,70.5,74.2,70.5,67.4,91,78,58,29.34,29.03,18,2,18,0.45
2013-7-11,93.0,75.9,63.1,67.0,61.5,58.0,87,63,43,29.30,29.17,3,0,4,0.00
2013-7-12,87.9,73.7,61.3,67.6,62.5,58.1,91,70,48,29.45,29.31,6,0,8,0.00
2013-7-13,87.2,73.3,0.0,71.0,64.1,-6.0,87,74,59,29.52,29.46,8,1,8,0.00
2013-7-14,105.6,82.2,66.7,77.1,70.2,63.3,92,69,41,29.61,29.52,10,1,10,0.00
2013-7-15,102.0,79.4,69.6,74.9,69.2,64.1,90,73,45,29.57,29.51,8,0,8,0.00
2013-7-16,106.8,82.9,70.8,74.6,68.0,64.0,79,63,37,29.56,29.49,6,0,6,0.00
2013-7-21,98.7,81.7,66.7,67.8,62.0,59.1,77,53,36,29.28,29.25,5,0,5,0.00
2013-7-22,82.2,71.7,0.0,69.2,63.3,-9.6,88,75,62,29.13,29.10,7,0,7,0.02
2013-7-23,85.1,74.2,66.3,68.9,65.2,63.9,92,75,54,29.11,28.91,9,1,9,0.49
2013-7-24,75.0,61.1,50.9,61.3,51.8,46.9,87,73,49,29.32,29.02,10,2,10,0.00
2013-7-25,83.4,62.2,48.9,58.5,52.1,46.1,92,72,43,29.39,29.32,8,0,8,0.00
2013-7-26,96.6,74.1,53.7,65.7,58.4,49.6,87,61,36,29.40,29.30,8,0,8,0.00
2013-7-27,86.7,75.4,61.1,68.5,64.4,54.6,89,69,54,29.31,29.16,15,2,18,0.38
2013-7-28,72.5,69.2,66.9,67.0,64.6,63.2,89,85,79,29.20,29.14,9,3,9,0.09
2013-8-7,70.1,69.6,69.4,64.3,64.0,63.8,84,83,81,29.23,29.22,7,4,8,0.00
2013-8-13,72.6,64.2,58.4,60.6,54.2,48.9,78,70,60,29.14,29.05,14,4,14,1.33
2013-8-14,74.1,61.3,53.2,52.9,49.2,46.8,82,66,47,29.33,29.12,13,4,13,0.02
2013-8-15,59.5,54.4,52.1,52.9,48.8,46.7,87,82,72,29.42,29.36,8,2,8,0.00
2013-8-16,93.9,74.0,54.3,60.6,55.1,48.7,82,54,32,29.48,29.41,8,2,8,0.00
2013-8-17,67.2,60.1,53.4,57.2,53.8,43.2,87,80,69,29.54,29.50,4,0,5,0.00
2013-8-18,89.9,67.9,58.1,65.0,58.5,54.3,89,74,41,29.55,29.44,7,0,8,0.00
2013-8-19,89.4,69.1,60.6,66.4,59.5,55.7,86,74,44,29.44,29.31,4,0,4,0.00
2013-8-20,93.3,71.4,59.7,68.1,60.6,55.8,89,71,39,29.41,29.35,4,0,4,0.00
2013-9-11,84.9,83.7,82.5,80.3,79.1,77.9,86,86,86,29.35,29.35,4,2,4,0.00
2013-9-12,69.4,67.7,65.6,65.3,63.3,61.0,88,86,82,29.17,29.01,7,2,7,0.00
2013-9-27,77.9,63.2,49.8,58.8,53.2,47.5,92,71,48,29.54,29.49,7,0,7,0.00
2013-9-28,88.1,63.7,46.5,59.9,51.1,43.2,91,66,37,29.59,29.48,9,3,9,0.00
2013-9-29,89.4,66.9,55.4,58.7,51.3,46.8,73,59,35,29.49,29.31,19,4,19,0.00
2013-9-30,88.3,64.5,54.1,62.3,52.2,42.7,77,66,41,29.33,29.23,6,1,8,0.00
2013-10-1,74.3,62.0,57.5,59.0,54.3,52.1,90,77,54,29.31,29.22,7,0,7,0.00
2013-10-2,80.6,65.1,56.4,75.9,55.1,50.0,81,70,48,29.33,29.23,17,3,17,0.00
2013-10-3,70.3,59.5,50.7,55.6,50.0,48.1,91,73,46,29.42,29.31,3,0,4,0.00
2013-10-4,84.9,70.0,60.4,74.3,63.1,51.6,89,79,63,29.34,29.28,7,1,7,0.06
2013-10-7,64.0,58.0,54.1,51.5,44.9,42.8,68,62,56,29.23,29.07,21,11,21,1.19
2013-10-8,81.1,54.9,45.5,52.2,44.1,41.5,89,70,37,29.62,29.23,15,1,15,0.00
2013-10-9,66.7,50.3,39.9,45.7,41.8,36.9,92,75,44,29.67,29.57,7,0,7,0.00
2013-10-10,55.5,48.3,43.3,45.6,40.8,34.9,82,75,66,29.57,29.44,6,0,6,0.00
2013-10-11,75.7,57.8,48.9,54.3,48.4,43.1,88,72,47,29.44,29.38,6,0,6,0.00
2013-10-12,70.5,47.7,44.4,53.7,41.7,39.8,85,80,55,29.49,29.41,7,2,7,0.00
2013-10-20,53.7,48.7,0.0,41.4,39.3,-6.0,80,70,61,29.27,29.17,60,8,60,0.00
2013-10-21,64.9,55.1,48.0,42.9,39.5,0.0,73,58,43,29.30,29.11,11,6,11,0.00
2013-10-22,54.5,46.4,41.5,47.7,35.0,31.2,86,65,45,29.13,29.04,16,7,16,0.06
2013-10-23,43.5,39.1,36.1,34.9,33.8,32.2,87,81,65,29.12,29.02,8,3,8,0.00
2013-10-24,37.2,36.2,35.9,32.7,31.3,30.3,84,82,80,29.10,29.07,13,9,16,0.00
2013-10-25,37.7,37.2,36.8,34.4,33.2,32.1,88,86,83,29.10,29.10,10,6,10,0.08
2013-10-26,42.8,41.7,40.8,37.2,29.6,28.4,87,62,58,29.39,29.12,29,12,29,0.02
2013-10-27,50.7,44.3,39.5,36.1,33.3,24.9,78,65,54,29.34,29.10,19,8,19,0.02
2013-10-28,65.8,42.1,32.5,38.3,29.8,23.3,73,63,36,29.64,29.34,16,5,16,0.00
2013-10-29,64.0,38.9,26.0,33.3,25.6,20.9,85,62,32,29.71,29.60,5,1,5,0.00
2013-10-30,49.8,43.1,39.0,44.2,36.2,28.0,82,77,60,29.60,29.40,8,2,8,0.00
2013-10-31,59.1,54.0,39.7,54.9,49.1,34.3,87,84,81,29.40,28.96,15,8,15,0.18
2013-11-1,66.3,58.3,52.3,56.8,45.1,39.7,77,62,48,28.97,28.60,30,12,30,0.24
2013-11-2,51.6,50.9,49.8,44.1,42.7,40.9,78,74,69,28.95,28.93,9,3,9,0.00
2013-11-11,36.6,36.6,36.6,30.1,30.1,30.1,77,77,77,29.40,29.40,6,6,6,0.00
2013-11-16,71.4,59.7,49.2,42.6,38.1,32.2,58,46,35,29.54,29.42,12,6,15,0.00
2013-11-25,32.1,31.4,30.7,16.5,15.2,14.2,54,51,49,29.42,29.39,24,12,24,0.02
2013-11-26,34.3,31.2,29.1,31.1,22.3,15.6,88,70,51,29.44,29.13,23,9,23,0.06
2013-11-27,33.9,31.4,28.9,30.9,27.3,22.6,89,85,77,29.05,28.83,0,0,0,0.69
2013-11-28,29.8,25.4,22.2,17.3,15.5,14.0,71,66,56,29.53,29.00,0,0,0,0.00
2013-11-29,44.4,31.8,16.1,23.7,16.4,6.6,67,53,42,29.96,29.53,0,0,0,0.10
2013-11-30,31.8,29.3,11.4,17.4,15.6,4.5,74,57,51,29.88,29.55,19,10,19,0.00
2013-12-1,40.6,35.7,30.7,29.7,28.2,17.7,86,75,58,29.54,29.26,9,3,16,0.08
2013-12-2,38.8,35.8,34.3,31.8,30.7,30.2,85,82,75,29.20,29.13,6,2,6,0.00
2013-12-3,57.9,37.1,27.6,35.6,28.2,21.9,88,72,43,29.28,29.20,4,0,4,0.00
2013-12-4,46.2,40.2,30.3,39.0,34.4,26.4,88,80,73,29.30,29.24,12,4,14,0.02
2013-12-5,55.2,48.6,41.5,50.3,43.9,38.5,89,84,70,29.27,29.09,22,10,26,0.19
2013-12-6,41.1,35.4,32.7,37.8,32.5,30.1,90,89,88,29.37,29.25,7,2,7,0.30
2013-12-7,34.1,31.3,29.6,29.7,20.4,16.3,84,64,54,29.66,29.39,25,13,25,0.08
2013-12-8,34.8,28.5,26.2,21.3,17.2,15.9,66,62,54,29.81,29.60,62,5,62,0.00
2013-12-9,37.9,34.4,28.0,33.2,27.3,17.7,83,75,65,29.60,29.17,27,12,28,0.00
2013-12-10,34.3,25.6,23.5,24.0,16.8,14.1,78,69,64,29.26,29.17,20,8,20,0.00
2013-12-11,22.2,21.4,18.3,18.6,15.6,10.4,86,78,64,29.48,29.31,21,10,21,0.00
2013-12-12,20.1,19.3,15.9,11.1,10.2,8.1,72,68,66,29.49,29.29,21,12,21,0.00
2013-12-13,21.7,19.0,16.3,16.7,13.6,11.1,84,79,68,29.55,29.28,21,8,28,0.00
2013-12-14,16.3,14.8,13.1,11.4,9.7,8.3,81,80,79,29.68,29.57,9,5,9,0.00
2013-12-15,29.1,25.7,19.4,21.6,19.2,12.9,85,76,67,29.57,28.93,21,10,23,0.00
2013-12-16,23.7,4.9,-0.2,19.8,-1.2,-5.7,85,75,65,29.44,29.02,22,1,23,0.00
2013-12-17,26.4,21.9,5.0,20.3,16.7,0.7,83,80,77,29.43,29.18,16,5,19,0.00
2013-12-18,29.8,29.1,28.5,24.1,22.8,19.8,82,77,68,29.34,29.21,17,8,17,0.00
2013-12-19,38.8,33.9,28.2,29.8,24.8,18.6,76,69,63,29.32,29.20,19,5,19,0.00
2013-12-20,48.2,44.8,38.4,43.8,37.1,29.8,86,75,57,29.27,29.07,18,9,18,0.02
2013-12-21,57.7,50.9,40.4,54.8,46.4,37.5,90,85,79,29.11,29.05,22,11,23,0.10
2013-12-22,60.4,44.3,35.9,52.5,40.6,33.8,93,87,71,29.24,28.86,64,6,64,0.23
2013-12-23,39.9,34.0,28.7,37.2,30.1,24.1,90,85,81,29.50,29.25,10,2,10,0.08
2013-12-24,29.1,24.7,21.9,24.0,19.6,18.0,86,81,73,29.49,29.43,15,4,15,0.00
2013-12-25,21.9,20.2,17.0,13.1,11.2,9.9,80,68,65,29.78,29.55,8,1,8,0.00
2013-12-26,29.1,28.2,26.4,20.4,19.9,19.1,74,71,68,29.51,29.43,54,8,54,0.02
2013-12-27,29.4,26.3,22.8,24.3,20.7,16.5,81,79,74,29.52,29.49,14,4,14,0.00
2013-12-28,56.8,42.6,27.1,38.4,31.0,17.3,80,64,48,29.46,29.23,13,3,13,0.00
2013-12-29,44.4,38.6,34.7,34.5,31.5,29.2,89,76,59,29.23,28.90,15,5,15,0.32
2013-12-30,35.6,17.2,14.1,29.7,10.6,7.9,80,75,69,29.46,28.92,20,4,20,0.00
2013-12-31,21.7,17.2,15.4,11.9,8.2,4.6,79,68,60,29.48,29.27,34,11,36,2.67
2014-1-1,24.4,19.4,14.7,11.3,8.6,6.4,77,63,50,29.62,29.47,18,7,18,0.00
2014-1-2,14.7,4.9,1.2,9.1,-0.5,-4.4,78,78,78,29.54,29.19,11,5,11,0.00